Hourly Weather Rusino

Today, 21 April, Wednesday

Time Temperature Precipitation Wind Pressure Humidity
00:00 +6°C° 0 mm 0 mps 741 mmHg 85%
01:00 +6°C° 0 mm 0 mps 741 mmHg 85%
02:00 +6°C° 0 mm 0 mps 741 mmHg 85%
03:00 +7°C° 0 mm 1 mps 741 mmHg 87%
04:00 +6°C° 0 mm 1 mps 740 mmHg 89%
05:00 +6°C° 0 mm 1 mps 740 mmHg 91%
06:00 +7°C° 0 mm 1 mps 740 mmHg 87%
07:00 +8°C° 0 mm 1 mps 740 mmHg 84%
08:00 +9°C° 0 mm 1 mps 740 mmHg 80%
09:00 +10°C° 0.4 mm 2 mps 740 mmHg 72%
10:00 +12°C° 0.4 mm 2 mps 740 mmHg 64%
11:00 +12°C° 0.4 mm 3 mps 740 mmHg 56%
12:00 +13°C° 0.4 mm 3 mps 740 mmHg 54%
13:00 +13°C° 0.4 mm 3 mps 740 mmHg 52%
14:00 +14°C° 0.4 mm 4 mps 740 mmHg 50%
15:00 +14°C° 0.3 mm 3 mps 739 mmHg 52%
16:00 +13°C° 0.3 mm 3 mps 739 mmHg 55%
17:00 +13°C° 0.3 mm 3 mps 739 mmHg 58%
18:00 +12°C° 0.1 mm 3 mps 739 mmHg 64%
19:00 +10°C° 0.1 mm 2 mps 740 mmHg 70%
20:00 +9°C° 0.1 mm 2 mps 740 mmHg 75%
21:00 +9°C° 0 mm 2 mps 740 mmHg 78%
22:00 +8°C° 0 mm 2 mps 740 mmHg 80%
23:00 +8°C° 0 mm 2 mps 740 mmHg 82%

Tomorrow, 22 April, Thursday

Time Temperature Precipitation Wind Pressure Humidity
00:00 +8°C° 0 mm 2 mps 740 mmHg 84%
01:00 +7°C° 0 mm 2 mps 740 mmHg 85%
02:00 +7°C° 0 mm 2 mps 740 mmHg 86%
03:00 +7°C° 0 mm 2 mps 740 mmHg 88%
04:00 +6°C° 0 mm 2 mps 740 mmHg 90%
05:00 +6°C° 0 mm 2 mps 740 mmHg 91%
06:00 +7°C° 0.1 mm 3 mps 740 mmHg 86%
07:00 +7°C° 0.1 mm 4 mps 740 mmHg 81%
08:00 +8°C° 0.1 mm 5 mps 740 mmHg 76%
09:00 +9°C° 0.3 mm 5 mps 740 mmHg 70%
10:00 +11°C° 0.3 mm 6 mps 740 mmHg 65%
11:00 +12°C° 0.3 mm 7 mps 741 mmHg 60%
12:00 +11°C° 0.2 mm 6 mps 741 mmHg 60%
13:00 +11°C° 0.2 mm 6 mps 741 mmHg 61%
14:00 +10°C° 0.2 mm 6 mps 741 mmHg 62%
15:00 +9°C° 0 mm 6 mps 741 mmHg 59%
16:00 +9°C° 0 mm 6 mps 741 mmHg 57%
17:00 +8°C° 0 mm 6 mps 741 mmHg 54%
18:00 +7°C° 0 mm 5 mps 742 mmHg 56%
19:00 +6°C° 0 mm 4 mps 742 mmHg 57%
20:00 +5°C° 0 mm 3 mps 742 mmHg 59%
21:00 +4°C° 0 mm 3 mps 743 mmHg 64%
22:00 +3°C° 0 mm 3 mps 743 mmHg 69%
23:00 +2°C° 0 mm 3 mps 743 mmHg 74%

Day after tomorrow, 23 April, Friday

Time Temperature Precipitation Wind Pressure Humidity
00:00 +2°C° 0 mm 3 mps 743 mmHg 76%
01:00 0°C° 0 mm 4 mps 743 mmHg 78%
02:00 0°C° 0 mm 4 mps 743 mmHg 80%
03:00 -1°C° 0 mm 4 mps 743 mmHg 82%
04:00 -1°C° 0 mm 4 mps 743 mmHg 84%
05:00 0°C° 0 mm 3 mps 743 mmHg 85%
06:00 0°C° 0 mm 4 mps 743 mmHg 80%
07:00 +1°C° 0 mm 5 mps 743 mmHg 75%
08:00 +2°C° 0 mm 5 mps 743 mmHg 69%
09:00 +2°C° 0.1 mm 6 mps 743 mmHg 67%
10:00 +3°C° 0.1 mm 6 mps 743 mmHg 65%
11:00 +3°C° 0.1 mm 6 mps 743 mmHg 62%
12:00 +4°C° 0.2 mm 6 mps 743 mmHg 57%
13:00 +5°C° 0.2 mm 6 mps 743 mmHg 52%
14:00 +7°C° 0.2 mm 6 mps 743 mmHg 46%
15:00 +7°C° 0.2 mm 6 mps 743 mmHg 49%
16:00 +5°C° 0.2 mm 6 mps 743 mmHg 51%
17:00 +5°C° 0.2 mm 6 mps 743 mmHg 53%
18:00 +3°C° 0.1 mm 5 mps 744 mmHg 61%
19:00 +3°C° 0.1 mm 4 mps 744 mmHg 68%
20:00 +2°C° 0.1 mm 3 mps 744 mmHg 76%
21:00 +1°C° 0 mm 3 mps 744 mmHg 80%
22:00 +1°C° 0 mm 3 mps 744 mmHg 83%
23:00 0°C° 0 mm 3 mps 744 mmHg 87%

24 April, Saturday

Time Temperature Precipitation Wind Pressure Humidity
00:00 -1°C° 0.1 mm 4 mps 744 mmHg 89%
01:00 -1°C° 0.1 mm 4 mps 744 mmHg 91%
02:00 -1°C° 0.1 mm 5 mps 744 mmHg 93%
03:00 -1°C° 0.1 mm 5 mps 744 mmHg 92%
04:00 -3°C° 0.1 mm 6 mps 744 mmHg 91%
05:00 -3°C° 0.1 mm 6 mps 744 mmHg 90%
06:00 -2°C° 0 mm 6 mps 744 mmHg 88%
07:00 -2°C° 0 mm 6 mps 744 mmHg 85%
08:00 -1°C° 0 mm 6 mps 744 mmHg 83%
09:00 -1°C° 0.2 mm 6 mps 744 mmHg 82%
10:00 +1°C° 0.2 mm 6 mps 745 mmHg 81%
11:00 +1°C° 0.2 mm 6 mps 745 mmHg 81%
12:00 +2°C° 0.3 mm 6 mps 745 mmHg 72%
13:00 +3°C° 0.3 mm 6 mps 744 mmHg 64%
14:00 +4°C° 0.3 mm 6 mps 744 mmHg 56%
15:00 +5°C° 0.3 mm 5 mps 744 mmHg 59%
16:00 +5°C° 0.3 mm 5 mps 744 mmHg 61%
17:00 +5°C° 0.3 mm 5 mps 744 mmHg 64%
18:00 +3°C° 0.1 mm 4 mps 744 mmHg 70%
19:00 +1°C° 0.1 mm 4 mps 744 mmHg 76%
20:00 +1°C° 0.1 mm 3 mps 744 mmHg 81%
21:00 0°C° 0 mm 3 mps 744 mmHg 82%
22:00 -1°C° 0 mm 3 mps 744 mmHg 84%
23:00 -2°C° 0 mm 3 mps 744 mmHg 85%

25 April, Sunday

Time Temperature Precipitation Wind Pressure Humidity
00:00 -3°C° 0 mm 4 mps 744 mmHg 85%
01:00 -3°C° 0 mm 4 mps 744 mmHg 86%
02:00 -4°C° 0 mm 4 mps 744 mmHg 86%
03:00 -4°C° 0.1 mm 5 mps 744 mmHg 88%
04:00 -4°C° 0.1 mm 6 mps 743 mmHg 91%
05:00 -4°C° 0.1 mm 7 mps 743 mmHg 93%
06:00 -3°C° 0.1 mm 7 mps 743 mmHg 91%
07:00 -2°C° 0.1 mm 7 mps 743 mmHg 89%
08:00 -2°C° 0.1 mm 7 mps 743 mmHg 87%
09:00 -1°C° 0.1 mm 7 mps 743 mmHg 81%
10:00 0°C° 0.1 mm 7 mps 744 mmHg 76%
11:00 +2°C° 0.1 mm 7 mps 744 mmHg 70%
12:00 +2°C° 0.2 mm 7 mps 744 mmHg 68%
13:00 +3°C° 0.2 mm 7 mps 744 mmHg 65%
14:00 +3°C° 0.2 mm 7 mps 744 mmHg 62%
15:00 +3°C° 0.2 mm 7 mps 744 mmHg 65%
16:00 +3°C° 0.2 mm 7 mps 744 mmHg 68%
17:00 +3°C° 0.2 mm 7 mps 744 mmHg 71%
18:00 +2°C° 0 mm 6 mps 744 mmHg 75%
19:00 +1°C° 0 mm 6 mps 744 mmHg 80%
20:00 0°C° 0 mm 5 mps 744 mmHg 85%
21:00 -1°C° 0 mm 5 mps 744 mmHg 84%
22:00 -1°C° 0 mm 5 mps 744 mmHg 84%
23:00 -1°C° 0 mm 5 mps 744 mmHg 84%

26 April, Monday

Time Temperature Precipitation Wind Pressure Humidity
00:00 -1°C° 0 mm 4 mps 744 mmHg 87%
01:00 -2°C° 0 mm 4 mps 744 mmHg 90%
02:00 -3°C° 0 mm 4 mps 744 mmHg 93%
03:00 -3°C° 0 mm 4 mps 744 mmHg 93%
04:00 -3°C° 0 mm 4 mps 744 mmHg 93%
05:00 -4°C° 0 mm 3 mps 744 mmHg 93%
06:00 -3°C° 0 mm 4 mps 744 mmHg 87%
07:00 -2°C° 0 mm 4 mps 744 mmHg 82%
08:00 -2°C° 0 mm 4 mps 744 mmHg 76%
09:00 -1°C° 0 mm 4 mps 745 mmHg 74%
10:00 0°C° 0 mm 4 mps 745 mmHg 72%
11:00 +1°C° 0 mm 4 mps 745 mmHg 70%
12:00 +2°C° 0.1 mm 5 mps 745 mmHg 67%
13:00 +2°C° 0.1 mm 5 mps 745 mmHg 65%
14:00 +3°C° 0.1 mm 5 mps 745 mmHg 62%
15:00 +3°C° 0 mm 5 mps 745 mmHg 63%
16:00 +3°C° 0 mm 5 mps 745 mmHg 63%
17:00 +3°C° 0 mm 5 mps 745 mmHg 64%
18:00 +3°C° 0 mm 4 mps 745 mmHg 67%
19:00 +3°C° 0 mm 4 mps 745 mmHg 70%
20:00 +2°C° 0 mm 3 mps 745 mmHg 73%
21:00 +2°C° 0 mm 3 mps 745 mmHg 77%
22:00 +2°C° 0 mm 3 mps 745 mmHg 80%
23:00 +1°C° 0 mm 4 mps 745 mmHg 84%
Show more